GFSCGP_925_thetae_132.txt.gz
Theta_e
309 308 308 308 308 309 310 310 310 309 309 311 309 309 308 307 307 305 303 302 302 303 306 310 316 328 330 332 333 334 333 332 332 331 331 331 331 330 330 329 328 327 328 328
308 308 307 308 309 309 308 309 309 310 309 308 308 308 308 306 306 305 305 303 303 304 304 306 309 315 326 329 331 333 333 333 332 331 330 330 330 329 329 329 328 328 327 327
308 308 308 308 308 309 308 308 308 310 310 309 309 306 306 306 305 306 305 306 306 305 305 305 306 309 315 325 329 332 333 333 333 332 331 330 330 329 329 329 328 328 328 327
308 307 309 308 308 307 308 308 308 310 307 308 305 304 305 306 305 305 306 307 307 305 304 304 306 307 309 317 326 330 332 333 333 333 332 330 330 329 328 328 327 327 328 329
308 306 308 309 309 307 308 308 309 308 307 307 307 305 305 305 307 306 305 305 306 306 303 304 306 308 308 311 319 327 330 332 333 332 332 331 330 329 329 328 327 327 326 326
308 307 307 308 308 308 306 307 306 305 305 308 306 306 306 306 307 307 306 304 303 302 301 300 307 307 308 310 314 318 321 327 331 332 332 331 331 330 329 328 328 327 327 325
307 308 307 307 308 308 307 306 307 308 308 309 305 306 307 306 305 304 305 303 305 303 304 304 306 307 310 311 311 311 311 310 312 320 330 332 332 331 330 330 329 328 328 326
309 309 307 307 308 308 307 307 309 309 310 307 305 307 308 306 305 303 304 304 304 305 304 305 306 309 313 314 314 314 313 312 311 309 309 315 330 331 330 331 330 328 325 326
308 308 306 307 307 308 308 307 306 307 298 308 306 305 306 306 305 305 306 304 304 304 304 305 307 309 312 314 315 316 315 313 310 308 307 307 311 325 329 330 330 327 324 323
307 309 308 308 308 308 307 307 310 307 306 308 305 306 306 306 306 304 303 305 304 305 305 304 305 308 310 313 315 315 315 316 314 313 313 313 312 316 325 326 326 324 323 324
308 309 310 308 308 308 307 307 307 308 307 308 306 304 302 306 306 304 303 302 302 304 304 303 304 307 309 310 313 314 315 315 316 316 317 319 320 321 322 322 322 322 323 325
309 311 311 308 307 306 307 308 308 308 306 305 307 306 303 302 303 303 303 301 301 301 303 303 304 305 306 308 312 313 312 313 314 315 316 317 318 318 319 319 320 322 322 321
310 308 307 310 308 308 307 307 307 306 305 306 306 306 303 305 306 305 303 303 301 301 302 302 302 303 305 307 309 311 312 312 313 314 315 315 315 316 316 316 317 317 317 316
310 309 309 310 308 308 309 308 307 308 310 307 307 306 307 305 304 306 308 307 305 303 303 302 301 302 304 306 307 309 311 311 311 312 314 314 315 315 314 314 314 313 312 311
309 306 309 307 307 308 308 309 309 310 310 308 307 305 305 303 303 302 303 306 306 305 303 302 301 300 303 305 306 307 308 310 309 310 311 312 312 311 310 309 308 308 306 305
308 309 307 305 307 307 306 307 308 309 309 308 308 306 303 302 303 302 303 304 305 305 304 302 301 302 303 304 305 306 306 308 310 309 309 309 309 309 308 306 305 304 303 303
309 305 307 307 308 307 307 308 306 307 307 307 307 308 304 303 303 303 303 302 304 305 304 302 303 303 303 305 305 305 305 306 307 308 306 305 305 304 302 302 302 301 301 300
308 309 306 307 306 311 308 305 306 306 306 306 306 306 304 304 302 302 301 302 302 303 303 301 302 303 304 305 305 305 304 304 304 303 302 302 301 300 299 299 299 299 298 297
306 307 304 309 297 305 308 305 304 306 307 305 305 306 305 303 304 304 300 300 302 303 304 304 304 304 304 305 304 303 301 301 301 300 299 299 298 298 298 298 297 296 294 293
305 307 311 293 305 307 305 305 303 304 308 304 306 307 306 302 306 308 302 300 299 302 303 304 304 304 304 303 303 301 299 298 298 298 297 296 296 297 296 295 293 293 292 292
305 303 311 298 309 302 303 305 304 307 308 303 303 305 305 304 307 304 302 303 302 302 302 303 302 302 302 302 301 298 297 296 297 295 295 294 295 294 293 293 292 291 291 291
308 310 311 305 310 312 301 304 309 306 303 304 304 304 303 301 302 302 301 299 297 295 296 298 297 298 299 299 298 296 295 296 294 293 293 292 292 292 291 291 291 291 290 289
310 308 307 310 310 303 300 304 303 300 302 303 304 304 303 301 299 298 297 295 293 293 293 295 295 294 295 296 297 294 294 293 291 291 290 290 290 290 290 290 290 289 289 289
306 302 305 307 305 303 303 301 300 300 301 301 301 300 298 301 297 297 294 293 291 291 291 292 292 291 291 293 295 297 293 291 291 290 289 289 289 289 289 289 288 288 288 287
302 303 300 300 301 300 301 301 299 297 296 297 296 298 299 296 295 294 293 291 290 290 289 291 290 289 290 292 293 293 292 290 289 288 287 287 287 288 287 286 287 287 286 286
299 303 309 310 300 301 300 299 297 297 298 297 297 297 297 296 295 293 292 291 289 288 288 288 289 290 289 289 290 289 289 289 288 287 286 286 286 285 285 285 283 282 283 282

GFSCGP_925_thetae_138.txt.gz
Theta_e
307 310 311 308 307 309 309 310 309 309 309 309 307 308 309 306 305 304 305 306 312 319 325 327 330 331 332 332 333 333 332 332 331 331 330 329 329 328 328 327 327 327 326 327
308 307 307 307 307 308 308 308 309 308 308 308 308 308 308 306 305 304 304 304 305 308 307 311 316 324 328 331 332 333 333 332 332 331 331 330 328 328 328 327 327 327 327 327
309 307 307 308 307 308 307 307 307 309 308 307 308 306 306 305 304 304 303 303 304 305 307 306 304 310 316 324 327 328 330 332 332 332 331 331 330 329 329 327 327 327 327 327
307 306 307 307 307 307 308 306 307 308 308 309 306 309 305 304 303 303 303 303 305 305 304 304 303 304 306 308 314 325 327 327 328 330 331 331 330 329 329 327 327 327 327 327
307 305 306 307 307 306 308 305 307 308 307 306 306 305 305 304 305 304 303 303 305 306 305 301 301 305 308 308 308 311 321 327 328 329 330 330 329 329 329 328 327 327 328 327
306 305 305 306 305 305 304 305 303 302 303 307 305 304 305 304 306 306 305 303 303 301 300 300 303 304 306 306 306 310 318 324 328 329 330 330 330 329 329 328 328 328 328 328
306 306 305 304 305 304 305 305 307 308 307 309 303 304 308 306 304 305 306 303 302 302 300 298 297 302 303 305 306 307 314 323 326 329 330 330 330 330 328 329 329 329 329 329
308 308 305 305 305 305 304 305 307 308 308 306 303 306 306 305 306 304 302 301 300 304 303 301 300 302 305 307 308 309 312 319 325 328 329 329 329 329 328 328 329 329 329 329
307 306 305 305 305 307 305 306 305 305 294 304 303 302 303 305 304 303 302 301 301 302 304 303 303 304 308 309 310 310 312 316 321 325 328 330 326 326 327 327 327 328 329 326
306 308 306 306 306 306 305 306 308 305 304 306 304 304 304 304 304 304 303 302 300 301 303 302 303 305 308 311 311 312 311 311 311 310 310 312 316 322 324 325 325 325 326 327
305 307 308 306 307 306 306 307 305 306 305 307 303 303 300 305 303 304 303 302 301 301 302 302 303 306 307 310 312 313 313 313 312 311 310 309 307 306 307 311 319 321 322 324
307 307 309 308 306 305 306 307 308 309 306 304 305 304 302 301 300 302 302 302 301 301 301 302 302 305 306 308 311 313 313 313 314 314 314 314 314 313 312 316 319 319 320 321
308 308 308 310 307 306 306 305 307 304 304 307 306 306 301 301 303 302 301 301 300 300 300 301 301 302 304 307 309 311 312 313 313 314 315 315 315 316 316 316 316 317 317 316
309 308 310 310 309 307 309 306 305 306 308 307 306 306 305 304 305 304 305 303 300 298 298 300 300 301 303 305 307 309 310 311 312 312 311 313 314 314 314 314 314 315 315 315
309 310 306 306 306 307 308 308 306 307 309 308 309 305 305 302 304 305 304 305 305 302 300 299 300 300 303 304 305 307 309 310 311 311 310 310 310 312 312 311 310 310 311 312
305 304 305 304 305 306 307 307 307 307 308 307 306 304 303 302 302 302 301 302 304 304 303 301 299 299 301 303 305 306 307 309 310 311 311 310 309 308 308 309 309 310 310 309
306 305 305 302 306 305 308 307 307 307 307 308 307 307 304 304 301 301 301 300 300 301 302 302 301 301 302 304 305 305 305 308 310 310 310 309 309 309 309 308 307 307 307 307
309 309 306 306 306 309 307 304 306 307 307 307 307 306 304 303 304 303 300 301 299 299 300 300 299 302 305 304 304 305 305 307 309 308 308 308 308 308 307 306 307 307 305 302
307 308 307 311 302 307 308 305 303 305 307 305 305 305 303 303 302 300 299 298 300 301 300 301 304 304 303 304 304 304 304 305 306 305 305 305 306 306 306 306 306 303 301 299
306 308 311 307 309 313 306 304 301 303 309 305 304 304 303 300 305 307 301 300 298 298 300 301 301 302 302 303 303 303 303 303 303 306 305 306 306 306 305 305 301 300 299 298
310 311 312 311 312 304 303 303 303 310 309 306 303 304 304 303 305 302 301 301 299 299 299 300 300 301 302 302 302 301 301 301 304 305 306 305 304 304 303 300 298 298 296 294
311 312 313 310 311 312 300 300 307 307 303 304 304 302 302 301 300 302 301 300 299 298 299 299 299 299 299 300 300 299 299 301 302 303 303 302 301 299 298 297 296 295 293 291
310 309 308 311 309 304 298 303 300 301 303 303 304 304 303 302 301 300 299 297 295 295 295 295 295 295 296 297 298 297 297 299 300 300 299 298 297 296 296 295 294 291 290 289
305 302 305 306 304 303 300 301 301 300 301 300 299 300 301 301 299 297 295 294 292 291 291 291 293 292 292 293 296 298 299 299 299 297 296 295 294 293 293 292 291 290 289 289
304 303 301 302 301 302 302 301 299 297 296 296 294 295 296 296 294 295 293 292 290 289 289 290 290 290 290 292 294 296 297 297 296 295 293 292 292 292 291 290 290 290 290 291
300 303 308 310 301 303 302 297 296 296 294 294 294 293 290 292 293 291 290 289 289 288 289 290 291 291 292 292 294 294 294 295 295 292 290 290 290 289 289 288 287 288 288 289

GFSCGP_925_thetae_141.txt.gz
Theta_e
307 311 314 312 314 313 313 311 310 309 311 310 309 307 309 307 305 305 305 306 314 323 325 327 329 330 331 332 332 333 332 332 332 331 330 329 329 329 328 327 326 326 325 325
308 312 309 309 307 308 308 310 310 308 307 307 308 307 307 305 306 305 305 304 305 308 312 318 324 328 330 331 331 332 332 332 332 332 331 330 329 329 328 327 326 326 326 326
310 309 307 308 307 307 307 307 308 310 307 306 307 307 307 307 304 304 303 304 304 306 308 308 310 318 326 329 330 331 331 331 332 331 331 330 329 329 328 327 327 326 326 326
308 306 307 307 308 307 308 306 307 307 308 309 305 309 307 306 305 304 305 304 305 305 305 305 305 307 313 320 326 328 329 331 331 331 330 330 329 329 329 329 328 327 326 326
309 305 306 308 307 306 308 304 306 307 306 305 304 305 305 304 304 304 304 303 305 306 307 305 304 307 308 311 315 319 323 327 328 330 330 330 329 330 329 329 329 329 327 326
306 304 306 307 305 306 303 304 303 301 303 307 305 306 306 305 306 306 305 304 306 306 302 301 303 305 306 307 306 307 311 318 324 327 328 329 329 329 329 329 328 328 328 327
305 305 304 303 304 303 304 307 309 309 308 309 303 303 308 306 304 304 306 305 302 300 300 299 298 299 302 304 305 306 307 313 317 324 327 327 328 328 328 328 328 328 328 328
310 310 304 303 305 305 305 307 309 310 308 306 302 306 307 304 303 302 302 301 301 300 302 302 300 299 301 303 304 304 306 314 319 323 326 327 328 328 329 328 327 328 329 329
309 307 304 305 304 306 305 306 305 305 293 304 304 302 302 304 304 302 301 301 302 300 300 303 302 302 304 305 306 306 307 310 316 322 326 326 327 327 328 327 327 328 328 328
305 308 306 306 305 305 305 305 308 306 305 306 304 303 305 305 304 302 302 301 300 299 300 302 302 304 307 308 309 309 309 311 315 319 323 325 325 326 326 326 326 326 326 326
304 307 307 306 306 306 305 306 305 306 307 308 304 304 300 303 302 302 301 300 301 300 300 301 302 305 307 309 310 311 311 311 311 311 312 314 317 320 323 324 323 323 323 323
305 307 308 307 306 305 306 306 307 309 306 303 304 306 301 300 301 301 300 301 300 300 299 300 302 304 305 308 311 312 312 312 312 311 310 310 309 307 307 307 312 317 318 319
307 308 308 310 308 306 306 304 306 303 304 305 307 308 301 298 300 302 300 301 300 300 301 300 301 302 304 306 309 311 312 313 313 313 313 313 312 311 310 310 313 315 317 318
308 307 311 311 308 306 308 306 304 306 307 307 307 307 305 305 305 304 304 302 301 298 298 299 300 301 303 306 308 310 311 312 312 312 312 312 312 312 313 313 314 315 316 317
308 311 307 305 306 307 308 308 306 307 308 307 308 306 304 302 302 304 303 305 304 300 298 297 299 300 302 304 305 307 309 310 310 310 310 310 311 313 313 313 314 315 314 314
305 306 305 305 305 305 306 307 307 307 307 307 307 304 303 304 300 300 301 302 303 304 301 298 297 298 301 303 305 306 307 308 309 309 309 310 310 311 312 311 312 312 311 311
307 305 304 310 306 306 306 307 306 307 306 307 307 307 303 303 301 302 302 301 301 301 301 300 300 299 301 303 305 306 305 307 308 310 309 309 309 309 309 309 309 308 309 309
309 308 306 305 304 309 308 304 306 306 306 306 307 305 303 303 302 301 300 301 300 298 299 299 299 302 304 303 304 304 305 306 308 309 308 308 307 307 307 308 308 308 306 304
306 308 306 307 297 304 307 304 302 304 307 305 305 306 303 302 302 301 299 298 300 300 299 299 301 302 302 303 304 304 304 305 306 308 308 309 308 307 307 306 305 304 304 304
305 307 310 297 310 309 305 305 300 302 307 304 304 305 303 300 306 307 303 300 298 297 299 299 299 300 301 301 302 302 303 303 304 306 308 308 307 307 307 307 306 305 304 304
307 306 310 299 310 304 303 301 302 307 307 304 302 303 303 303 306 302 301 300 299 298 299 299 298 299 299 300 300 301 301 301 304 304 304 305 304 304 305 305 304 303 300 298
310 311 311 307 309 311 300 301 306 306 304 303 302 301 299 299 300 301 299 298 297 296 297 297 297 297 298 299 299 299 299 301 301 302 303 303 303 304 304 303 302 298 297 295
307 307 306 310 309 303 298 304 301 300 302 303 303 302 299 299 300 299 297 296 294 293 294 294 294 295 296 297 297 297 297 298 299 300 302 302 302 302 301 300 297 294 293 292
305 302 304 305 304 303 300 300 301 301 301 300 300 300 301 300 299 296 295 293 292 291 290 291 293 292 293 294 296 297 298 297 298 299 299 299 299 297 296 296 295 294 291 290
303 303 298 299 301 303 302 300 299 297 296 295 294 295 297 296 294 294 292 291 289 289 288 289 289 290 290 292 294 296 297 297 297 297 297 296 296 295 293 293 294 293 293 292
299 302 307 307 302 304 303 298 296 296 296 294 293 291 290 292 292 290 289 287 287 285 287 288 288 289 289 291 292 293 293 294 296 294 293 293 292 292 292 291 289 290 290 289

GFSCGP_925_thetae_144.txt.gz
Theta_e
315 321 324 318 318 320 319 317 321 316 314 315 318 319 320 319 312 313 315 316 320 324 325 328 330 331 332 332 333 334 333 333 331 331 330 329 329 329 329 330 330 328 326 325
314 324 323 320 318 314 313 313 317 315 310 313 318 315 316 316 315 313 314 315 315 318 322 325 328 330 330 331 332 333 333 333 332 331 330 330 330 330 330 330 329 328 326 325
321 320 314 317 317 316 312 315 315 318 310 310 311 315 314 313 312 311 311 312 313 314 315 317 324 328 330 330 331 331 332 333 333 332 331 331 331 331 330 330 330 328 327 325
318 313 313 316 318 319 319 310 313 311 312 318 309 322 318 313 313 311 312 312 312 312 310 311 314 320 327 329 330 331 331 331 332 332 332 332 331 331 330 330 330 329 328 327
317 310 313 315 315 314 319 310 310 310 312 311 312 313 316 310 312 312 313 313 313 313 313 312 311 312 315 322 328 329 330 330 330 331 332 332 331 331 331 330 330 330 329 327
308 307 311 314 312 313 307 309 308 308 310 315 315 312 316 315 314 314 313 313 313 313 313 312 310 309 309 309 314 322 327 329 330 330 331 331 331 331 331 331 330 330 329 328
307 308 306 308 310 308 310 314 314 316 316 317 307 309 314 312 312 311 312 313 312 311 311 309 308 307 307 306 306 308 317 323 327 328 329 330 330 331 331 331 329 329 329 328
319 317 308 307 312 311 312 316 317 321 317 317 305 312 313 311 311 312 309 310 308 307 307 308 308 306 304 304 304 304 307 313 319 323 326 327 329 329 330 329 328 328 328 328
320 315 306 306 306 310 312 313 312 309 304 312 312 310 309 310 310 309 309 308 309 309 307 307 307 306 305 305 305 304 305 311 317 321 323 325 326 327 328 328 328 328 327 327
313 313 307 306 307 306 310 310 311 311 317 317 312 309 312 311 310 309 308 309 309 308 308 307 308 307 307 308 308 306 306 307 311 319 321 323 324 325 326 326 326 327 327 327
313 311 308 307 308 310 309 310 310 313 311 316 314 314 310 312 309 309 309 308 307 308 307 307 308 308 309 310 310 310 309 309 311 314 317 320 321 322 324 324 326 326 325 324
309 310 310 309 307 307 310 311 311 313 312 309 309 314 306 308 309 306 308 306 305 305 306 307 308 308 309 311 311 311 311 310 310 311 313 317 321 322 323 323 323 323 323 322
310 314 316 311 309 307 308 308 310 310 309 316 318 315 305 304 305 307 307 307 305 305 305 306 307 308 309 310 311 312 311 312 311 311 310 310 309 308 308 308 311 319 321 320
310 311 317 314 311 309 309 308 308 310 317 313 311 312 308 307 307 307 307 307 306 305 306 307 307 308 308 308 310 311 311 311 312 312 311 310 310 311 311 309 309 311 314 316
309 314 311 308 311 310 311 309 308 308 310 311 312 311 310 310 308 308 307 307 306 305 303 305 307 308 307 307 307 309 311 311 311 310 310 310 312 312 312 312 313 314 315 316
307 316 311 308 307 310 312 310 309 310 310 310 310 310 306 309 307 306 306 306 307 307 305 303 303 305 306 306 307 307 309 309 310 309 309 310 310 311 313 313 313 314 314 314
311 311 313 315 309 311 314 311 310 310 310 310 310 310 308 306 306 308 309 305 306 306 307 306 304 304 304 305 305 306 307 308 308 308 308 309 310 311 312 312 312 312 312 312
310 312 316 312 311 315 313 311 310 310 310 309 309 309 309 309 308 308 309 309 307 304 305 305 306 305 304 303 304 305 305 306 307 307 307 308 309 310 310 310 310 310 310 310
310 312 312 314 314 313 310 306 308 309 310 309 309 308 308 305 305 307 305 307 307 307 307 305 303 303 304 304 304 303 304 304 305 306 306 307 307 308 308 308 308 308 308 307
308 311 316 308 313 312 310 306 304 307 310 309 308 308 308 306 309 310 310 307 307 306 301 300 301 302 302 303 303 303 303 302 303 304 305 305 306 307 308 308 307 307 306 306
311 311 312 311 314 312 307 304 306 312 311 309 307 308 308 307 309 309 305 302 300 300 300 298 298 298 299 300 300 301 301 301 303 303 304 305 306 306 306 306 305 304 302 301
311 313 313 313 313 312 303 303 310 310 307 305 303 304 305 306 304 302 301 301 300 299 298 296 297 297 297 297 297 298 299 301 301 301 302 304 305 305 305 305 303 301 300 298
312 311 314 312 312 306 302 307 304 303 306 305 305 303 301 301 301 301 301 299 297 295 293 293 294 295 294 295 296 296 298 298 299 299 300 301 303 303 303 303 301 298 297 295
306 305 311 312 309 307 305 302 302 302 304 303 304 304 302 303 301 298 297 295 294 291 291 290 292 291 290 292 294 294 296 296 296 297 296 298 301 301 301 300 300 298 294 291
309 306 308 307 303 304 305 303 303 301 299 298 297 298 300 300 297 296 294 292 291 288 288 289 289 288 287 290 291 293 294 294 295 295 293 295 296 297 296 296 297 296 296 296
302 305 310 312 306 307 306 302 300 300 298 297 296 295 292 295 294 292 290 288 287 286 287 286 286 286 287 289 289 290 292 293 294 293 292 292 293 292 292 291 290 291 292 292

GFSCGP_925_thetae_147.txt.gz
Theta_e
319 321 324 320 326 331 330 333 334 329 320 318 321 324 323 324 322 318 318 319 319 322 324 326 329 330 331 331 333 334 334 334 333 332 331 331 329 328 329 330 330 330 329 327
321 324 323 318 322 323 328 330 331 327 315 315 320 322 322 321 322 323 321 317 318 319 321 324 328 330 331 331 332 333 334 334 334 333 332 332 330 330 330 330 330 330 330 328
324 325 325 321 321 323 326 325 326 325 316 314 317 320 321 320 318 320 321 321 317 318 318 322 326 329 330 331 331 333 333 334 334 333 333 332 331 330 332 331 331 330 329 329
323 322 324 325 325 324 329 321 326 321 320 330 315 328 326 322 319 316 317 317 317 315 315 318 323 328 329 330 331 332 332 333 334 334 333 333 332 333 332 332 332 331 330 329
322 322 322 325 325 324 326 322 323 322 319 319 320 316 323 321 318 317 316 316 317 316 315 313 316 321 327 329 331 332 331 332 333 334 334 333 333 333 332 332 332 332 331 330
316 315 317 321 322 323 315 315 315 313 317 321 321 322 321 320 319 317 316 316 317 317 316 316 314 313 317 323 328 331 332 331 332 333 334 333 334 333 333 333 332 332 331 331
311 314 313 314 320 318 316 317 322 321 321 323 313 318 320 318 318 317 316 316 316 318 318 317 317 313 313 314 315 323 329 330 331 332 332 333 333 333 333 333 333 332 331 331
319 316 311 312 318 318 316 322 322 327 325 322 309 316 317 315 316 316 315 313 312 312 313 314 315 313 311 310 310 311 314 322 327 330 331 331 332 332 332 332 332 332 331 330
320 318 311 312 314 315 315 320 321 314 309 315 316 315 314 314 312 312 312 311 312 312 312 310 312 311 310 308 308 309 309 309 316 323 327 329 329 330 331 331 331 331 330 330
319 317 310 309 309 313 316 317 318 315 323 320 319 316 316 315 314 313 313 312 312 312 312 312 311 310 309 309 309 308 307 307 310 315 320 324 325 327 329 329 329 329 328 328
318 314 309 307 310 313 311 316 315 316 316 321 320 317 314 315 312 311 311 311 311 310 311 311 311 310 310 311 311 310 309 309 312 317 320 322 323 324 324 325 326 326 326 327
315 314 311 309 309 309 312 315 315 318 317 313 312 316 309 312 312 310 310 310 308 308 309 309 310 310 311 312 313 313 312 311 312 314 318 320 320 320 322 323 324 324 324 324
312 316 318 313 311 308 311 313 314 315 313 319 321 319 308 308 309 308 309 310 308 308 308 309 310 311 311 313 313 313 313 313 312 312 313 314 316 316 319 321 322 322 323 323
312 315 320 317 315 311 311 313 313 315 319 318 316 316 311 310 310 310 309 310 310 308 308 309 310 310 311 311 313 313 313 314 313 312 312 312 312 312 313 314 315 318 320 320
312 317 314 314 314 312 310 311 310 313 315 315 315 313 313 313 310 309 310 309 309 308 307 308 310 311 310 310 311 312 313 313 313 313 313 313 312 312 312 312 311 310 311 317
311 318 312 312 310 313 312 310 310 310 312 313 313 313 313 310 311 311 310 309 309 310 308 307 307 309 310 310 310 311 312 313 312 313 312 312 312 311 312 312 311 311 312 313
312 315 316 317 311 314 314 312 310 310 310 311 312 312 313 312 310 310 311 309 308 309 309 309 308 306 307 308 308 309 310 311 311 311 311 311 310 310 311 312 312 313 313 314
312 313 315 318 315 316 315 311 311 310 310 310 310 311 312 312 311 311 311 311 310 308 306 307 308 308 307 306 306 307 308 309 309 309 310 310 309 309 310 311 311 312 312 312
310 314 316 317 318 317 315 313 313 312 312 312 311 311 311 310 307 309 309 309 309 309 309 307 308 308 307 306 305 305 306 307 307 308 308 308 308 308 309 310 310 311 311 310
311 313 315 316 318 318 313 311 309 312 314 312 312 312 312 310 310 310 309 308 308 308 308 305 305 304 304 304 304 304 304 304 305 306 306 306 305 307 308 308 309 308 308 309
312 315 316 316 317 317 309 307 308 312 312 309 309 310 310 310 310 310 306 305 301 301 301 300 300 301 301 301 301 302 303 303 304 304 304 304 303 306 307 307 307 306 305 305
313 315 316 317 316 316 307 307 309 310 310 307 305 307 308 309 308 305 304 303 302 301 299 297 299 297 297 298 298 299 300 301 301 302 302 303 302 304 305 306 305 304 303 301
313 312 314 313 314 307 307 309 308 307 309 306 307 305 306 306 305 303 303 302 299 296 294 294 295 295 293 293 295 296 297 298 298 299 300 300 300 301 303 303 302 300 299 298
310 309 314 311 311 310 307 305 304 305 306 305 306 305 303 304 302 299 298 296 295 292 291 291 293 292 289 290 291 292 293 295 295 296 296 297 298 298 299 300 300 299 297 295
310 309 311 312 305 306 307 307 307 303 302 301 299 300 302 301 298 297 295 293 291 289 288 288 288 287 286 287 287 288 290 292 293 293 294 295 296 296 297 298 298 298 299 299
303 307 310 311 306 309 309 308 304 302 301 301 299 296 295 298 296 293 291 289 288 287 286 286 285 285 285 285 286 288 290 291 292 291 291 292 293 293 294 295 293 293 293 294

GFSCGP_925_thetae_150.txt.gz
Theta_e
319 322 325 323 325 329 329 332 334 332 323 321 322 325 323 322 314 314 314 313 314 318 323 327 329 330 331 332 333 332 332 331 329 329 329 329 330 329 328 327 329 329 328 327
317 321 321 321 326 330 330 333 334 331 315 316 318 320 320 319 320 320 316 315 313 315 317 323 328 329 331 331 332 332 333 333 332 330 330 330 330 329 327 327 328 329 329 328
317 320 321 324 326 329 325 330 331 331 316 313 314 317 318 318 318 318 319 318 317 314 314 317 326 328 330 331 331 331 333 334 333 332 332 331 331 329 329 330 330 330 330 330
317 317 322 324 324 325 329 325 324 324 321 326 315 323 324 323 320 318 318 318 318 316 313 314 322 327 329 330 330 332 333 334 334 333 333 332 331 330 330 330 330 331 330 330
318 323 324 326 325 324 329 321 322 324 322 320 320 314 318 319 320 318 315 313 316 317 312 312 317 325 329 330 330 331 332 333 334 334 333 333 332 331 331 331 332 331 331 330
322 313 322 323 325 323 321 322 322 319 317 320 319 321 321 320 318 317 315 312 313 313 313 310 315 324 327 329 330 330 331 332 333 333 334 333 332 332 332 332 332 332 332 331
319 317 318 317 322 323 316 317 317 321 321 323 315 320 322 319 317 316 315 313 312 312 312 310 308 311 319 326 329 330 331 331 331 332 333 334 333 333 333 332 332 332 332 331
320 319 316 312 319 323 317 319 320 323 323 319 309 314 315 314 315 314 314 313 311 310 310 311 310 311 312 317 324 329 331 331 331 331 333 333 334 333 333 333 333 332 332 331
318 317 315 313 317 317 317 319 317 312 305 314 313 312 312 312 311 311 311 311 310 308 308 307 309 311 312 313 315 317 323 329 330 331 332 332 332 333 333 333 332 332 332 331
317 316 314 311 311 314 316 317 322 316 314 315 315 315 315 315 312 310 309 308 308 308 308 307 306 309 310 310 311 311 311 311 315 324 328 331 331 331 332 332 332 332 332 331
316 313 309 309 311 317 311 318 318 316 316 321 321 315 311 312 312 311 309 310 310 309 307 307 305 309 310 309 309 308 307 308 308 309 318 324 329 330 329 330 330 331 329 328
317 312 311 311 308 310 314 316 318 320 317 311 314 313 307 311 307 307 309 309 308 307 307 305 305 309 310 311 311 311 310 308 307 309 312 318 322 324 326 327 329 327 325 325
314 313 313 311 310 308 312 314 317 314 313 313 314 315 307 307 306 307 307 308 306 307 307 306 307 307 310 312 312 313 312 311 311 311 316 320 321 322 323 323 322 322 323 323
313 314 314 313 313 311 311 313 314 317 316 314 315 314 308 307 307 307 308 307 307 305 305 305 306 306 309 311 313 313 313 312 312 312 313 316 317 318 319 319 319 320 321 321
313 315 314 312 312 312 311 312 314 315 316 315 315 313 312 307 307 307 306 307 306 306 305 305 305 305 308 310 311 313 313 313 313 312 311 312 313 314 314 316 318 319 319 319
314 314 311 309 311 311 311 310 312 313 314 314 314 312 311 310 308 305 307 307 306 307 306 304 304 305 307 309 310 311 312 313 313 312 312 312 312 312 311 311 311 310 311 312
313 313 312 311 310 310 311 310 311 312 312 313 314 314 310 309 308 307 307 307 306 306 306 305 303 302 305 308 309 309 311 313 313 312 313 313 312 312 312 312 311 310 308 310
312 311 313 313 311 313 310 309 309 311 310 311 312 311 310 309 308 307 306 307 306 305 304 304 303 305 306 306 308 308 309 310 312 312 312 312 312 311 311 311 309 309 309 308
311 312 316 316 315 312 313 311 308 309 309 309 309 310 308 307 307 306 306 306 306 305 305 304 305 306 307 306 306 307 308 309 310 310 310 311 310 309 308 307 309 309 310 310
311 312 315 317 318 319 313 310 308 308 311 309 308 308 308 306 308 308 305 305 305 303 302 302 304 305 305 305 306 305 306 307 307 306 307 308 308 307 306 307 308 308 309 310
312 312 314 316 317 314 310 307 309 311 311 309 309 309 309 309 310 306 303 302 300 300 299 300 299 299 297 298 301 303 302 303 304 304 304 305 306 305 305 306 306 306 307 307
312 314 314 315 314 313 305 308 312 309 306 305 306 307 307 306 305 303 300 299 297 295 294 296 296 294 294 295 296 297 298 298 300 301 302 303 303 304 302 303 305 305 305 304
311 311 312 313 313 305 303 306 305 305 305 304 304 305 306 305 303 300 299 296 293 292 292 293 294 291 291 292 292 293 292 294 296 297 299 299 299 299 300 302 303 302 301 300
307 308 307 306 307 304 304 304 303 304 304 303 304 303 303 301 298 296 294 292 290 289 289 291 290 287 286 288 289 289 291 294 295 294 294 294 295 296 298 300 301 301 299 297
306 307 304 306 305 305 306 305 303 301 300 299 297 299 299 296 295 293 291 290 288 287 287 287 286 284 283 285 286 288 290 291 292 293 293 294 295 295 295 295 296 296 297 298
295 297 307 308 297 304 302 297 299 299 300 298 296 295 294 294 292 289 288 287 286 284 284 283 283 282 281 282 284 287 289 291 291 291 291 292 293 293 293 294 293 294 295 295

GFSCGP_925_thetae_156.txt.gz
Theta_e
322 325 327 326 326 326 325 327 330 329 327 323 322 315 315 315 315 314 310 307 308 314 322 328 330 329 331 331 330 330 330 330 329 330 330 330 330 330 330 329 329 327 326 325
321 325 324 324 324 326 328 328 328 329 329 327 322 318 317 316 315 316 316 311 309 309 311 317 326 329 330 331 331 329 330 330 330 329 329 328 327 329 331 330 330 329 328 328
324 324 321 324 324 326 327 328 330 329 326 321 316 322 321 314 316 317 317 317 314 311 309 312 320 326 329 330 330 329 329 330 330 329 329 328 328 328 328 329 329 329 329 328
323 319 321 323 325 324 328 324 326 330 325 333 316 336 322 321 318 316 316 317 316 314 309 311 317 323 327 329 330 330 329 329 330 329 329 328 327 327 327 327 328 329 328 328
320 320 321 325 324 323 325 325 327 330 327 322 317 319 323 313 317 317 316 317 317 316 312 311 315 321 325 327 329 330 330 329 329 329 328 328 327 327 327 327 328 328 328 328
318 316 320 322 321 323 323 326 321 322 322 327 327 317 320 315 316 315 314 314 315 314 311 310 311 320 323 326 328 330 330 330 330 329 329 328 328 327 327 327 327 327 328 328
320 319 318 319 323 322 325 325 326 326 327 331 318 316 324 318 315 313 313 312 311 312 311 311 307 313 321 324 326 328 329 329 330 330 329 329 329 328 328 328 327 327 327 327
322 324 322 319 321 325 325 322 326 329 327 326 313 321 318 315 318 317 312 311 307 306 307 307 307 309 318 323 325 326 327 328 329 330 330 330 329 329 329 329 328 328 327 327
323 321 319 319 319 322 323 324 319 316 304 314 313 310 309 310 310 310 309 309 306 305 304 304 304 306 316 321 324 325 326 328 328 329 330 330 330 330 330 329 329 328 328 328
319 322 319 318 318 318 321 321 326 319 321 315 313 312 314 313 313 310 308 305 305 303 303 303 302 305 308 317 322 324 326 327 328 328 329 330 331 331 331 330 330 330 329 329
317 318 317 317 321 323 321 322 322 321 314 316 314 313 308 312 311 310 308 306 304 303 302 302 302 304 307 308 315 322 325 326 326 327 328 329 329 330 330 330 330 330 330 330
319 316 319 318 315 315 320 321 320 324 319 312 313 313 309 306 303 304 307 305 304 303 302 301 301 303 305 306 307 309 314 322 325 326 326 327 328 328 329 330 330 330 331 331
318 314 318 318 316 314 320 318 320 317 314 317 316 318 306 305 306 305 304 303 302 304 304 303 303 303 305 307 307 308 308 309 310 311 313 316 321 324 326 328 329 330 330 329
315 312 316 320 318 315 322 320 319 320 320 320 318 316 308 306 305 304 304 304 302 302 302 303 304 304 305 307 308 308 309 309 308 308 307 307 307 308 310 317 324 328 329 328
316 314 315 314 311 314 317 320 318 320 320 319 319 312 312 305 305 303 303 303 304 302 302 302 303 303 304 306 308 309 310 310 310 310 309 308 308 310 312 317 323 325 326 327
311 314 314 317 314 311 313 317 318 316 318 318 317 312 309 308 303 303 302 303 303 302 303 302 302 302 303 305 307 309 310 311 311 311 310 310 311 314 316 318 319 320 321 322
315 313 314 319 315 312 314 314 317 317 315 316 318 317 308 308 304 303 302 302 302 302 302 302 302 302 303 306 307 308 310 311 311 311 311 310 310 311 312 314 315 315 315 317
312 311 313 318 313 319 314 310 313 317 316 315 314 314 314 313 307 305 303 302 301 301 301 300 299 300 303 304 306 307 307 309 310 311 311 311 310 310 310 310 310 310 311 312
309 311 316 319 316 312 311 310 311 313 315 315 315 315 313 311 310 310 303 301 302 301 301 301 302 302 302 303 303 304 306 307 309 309 310 310 310 310 310 309 307 307 306 306
311 311 314 313 320 320 314 307 307 309 313 312 313 314 314 308 312 313 312 303 301 300 301 300 301 302 301 300 302 304 304 305 305 306 308 309 309 310 311 309 307 305 304 304
310 313 316 317 317 311 307 305 308 313 314 310 311 310 311 312 312 312 303 301 298 297 297 298 297 295 294 296 299 300 300 299 299 300 302 304 305 307 307 306 304 302 302 303
313 316 316 317 317 315 305 305 311 311 305 306 307 308 308 310 309 302 300 298 295 294 293 293 292 290 292 295 296 295 295 294 296 298 299 301 302 302 302 303 302 301 302 302
313 312 313 313 312 305 303 306 304 303 305 304 304 304 303 303 301 298 296 294 293 292 291 291 289 287 288 291 292 291 289 291 293 294 294 296 297 298 299 299 299 299 300 301
306 307 308 312 309 306 304 303 302 301 303 303 301 301 300 300 297 295 293 291 290 289 288 287 286 285 284 286 288 289 290 291 292 293 293 294 295 296 297 298 298 299 299 299
304 306 306 306 304 303 301 295 295 297 299 300 297 297 297 296 294 293 291 289 287 286 285 285 284 283 282 285 286 289 290 291 292 293 293 294 295 295 295 295 296 297 297 298
288 293 306 308 291 296 298 293 291 295 295 295 298 296 292 293 292 289 288 286 284 282 281 280 279 279 279 282 284 287 290 291 292 292 292 293 294 293 294 294 293 293 294 294

GFSCGP_925_thetae_159.txt.gz
Theta_e
322 325 326 326 326 325 324 327 328 327 327 330 330 329 326 317 312 313 312 308 307 316 326 328 328 330 331 330 329 330 330 330 330 330 329 328 328 328 328 328 328 328 327 325
323 324 323 322 324 326 325 326 326 327 328 329 330 329 326 322 321 315 315 315 308 309 310 320 327 328 329 330 330 329 330 330 330 329 330 329 329 329 329 328 329 328 328 326
322 321 320 324 325 327 328 328 326 328 326 328 327 331 329 326 317 315 314 315 316 313 310 310 318 327 328 329 329 329 330 329 330 329 329 329 329 329 329 329 329 330 329 328
323 320 322 324 326 326 329 326 326 329 330 334 327 335 329 327 326 322 318 317 318 317 311 310 309 318 326 328 328 328 328 329 329 329 328 328 328 328 327 327 328 330 329 329
321 322 323 326 324 324 327 323 325 326 330 326 322 325 327 324 324 323 319 318 319 319 317 310 309 312 320 324 328 328 328 328 329 329 328 328 327 327 327 326 326 327 329 329
319 317 321 323 322 322 324 324 324 324 324 328 326 324 327 321 316 319 318 316 316 317 315 313 312 312 316 321 326 328 328 328 328 329 328 328 328 327 326 327 326 326 326 326
321 320 319 319 324 323 325 326 326 327 325 329 321 324 327 319 315 314 314 314 310 311 311 311 309 309 316 321 324 327 328 327 328 328 328 328 328 327 327 326 326 326 326 326
324 322 321 320 321 322 324 325 329 331 327 325 315 326 323 318 317 319 316 315 310 307 307 309 310 308 313 319 323 325 327 328 328 327 328 328 328 327 327 327 326 326 326 326
322 323 319 319 318 321 324 326 320 319 306 313 315 312 310 311 311 310 308 311 311 309 304 304 305 308 309 317 321 324 326 327 328 328 328 327 328 328 327 327 327 327 326 326
320 322 319 318 318 319 320 319 323 321 323 321 316 312 317 313 314 319 310 307 307 306 305 303 302 304 308 312 318 322 324 326 327 328 328 329 329 328 328 328 328 327 327 327
319 320 319 318 321 324 322 323 323 320 318 323 316 315 308 314 312 310 309 307 306 304 303 302 301 302 305 307 314 319 323 324 326 326 327 328 329 329 329 329 329 328 329 329
319 316 320 321 315 318 320 322 322 325 322 313 313 316 308 307 308 304 303 303 304 302 302 300 300 301 302 305 306 317 321 323 324 325 326 327 328 328 329 329 329 329 329 329
317 315 319 318 317 315 319 321 322 319 314 319 321 319 309 303 304 302 303 303 302 303 302 301 300 300 302 304 305 307 314 321 323 324 325 326 326 327 327 328 328 329 329 329
316 314 315 319 315 317 321 321 321 322 323 321 319 318 314 310 305 304 304 303 302 300 301 301 302 301 302 304 305 306 307 308 311 317 321 323 324 325 325 325 326 327 327 328
315 314 314 314 313 312 318 319 321 322 322 324 321 320 318 316 312 305 302 301 302 301 301 301 302 302 302 304 306 307 307 307 307 307 307 307 307 307 307 308 310 315 321 325
309 313 313 315 315 314 311 316 320 321 321 322 321 320 314 310 307 302 302 301 302 302 300 301 301 301 301 304 305 307 308 309 309 309 309 308 308 308 309 311 312 316 320 322
311 311 313 315 314 316 317 315 316 320 318 319 321 319 311 309 305 306 304 301 302 302 301 301 301 301 302 304 306 307 308 309 310 310 310 310 309 310 311 313 315 317 318 319
312 312 313 317 311 319 315 311 312 315 317 318 317 317 315 314 311 307 303 303 302 301 300 300 300 301 303 305 305 306 307 308 309 310 310 310 309 309 310 310 311 312 313 313
308 310 312 310 315 313 313 309 311 314 315 314 315 316 315 312 311 310 307 301 301 300 299 300 301 301 302 301 302 304 305 306 308 308 309 309 309 309 308 309 309 309 309 309
307 308 311 308 304 317 311 308 307 309 314 312 313 314 314 311 314 314 311 308 304 300 301 300 300 300 300 300 302 303 303 304 305 306 307 308 308 309 309 309 306 306 305 305
307 307 308 310 310 305 308 306 308 313 314 309 311 312 312 313 314 314 310 307 301 298 297 299 299 298 296 297 299 300 300 300 299 300 301 303 304 306 306 306 305 304 303 303
308 309 310 309 311 312 304 305 313 311 308 306 308 309 310 310 311 311 308 301 297 295 294 294 293 291 292 295 297 296 295 294 295 295 298 300 302 304 304 304 304 303 303 302
311 309 308 310 310 306 301 305 303 300 301 302 302 304 304 305 305 302 299 296 294 292 291 291 290 287 288 291 293 292 289 290 292 292 293 295 296 298 299 300 300 300 300 301
303 304 305 306 308 306 304 302 297 296 297 298 298 298 300 302 299 297 294 293 291 289 287 286 286 285 284 286 287 288 290 291 292 292 293 293 295 296 297 298 299 298 299 299
301 298 301 303 303 300 297 293 292 293 295 294 294 294 295 298 296 294 291 289 288 286 285 285 284 283 282 284 286 289 291 292 293 293 294 294 294 295 296 296 296 296 296 297
289 296 303 305 286 286 294 287 289 289 292 291 292 294 292 292 293 290 289 286 285 283 282 281 280 280 281 283 285 288 290 292 292 292 292 293 293 293 294 293 292 292 293 293

GFSCGP_925_thetae_162.txt.gz
Theta_e
322 325 324 324 325 325 323 326 328 326 326 328 328 328 327 325 322 317 313 310 307 312 325 328 330 331 331 328 329 330 330 330 329 327 326 326 326 327 327 327 324 323 324 326
324 324 323 320 321 325 327 326 326 325 326 327 326 328 326 326 325 324 323 318 311 309 308 313 326 328 331 331 329 329 330 329 330 328 328 327 327 327 328 328 327 326 326 327
324 322 320 322 324 326 324 328 327 326 325 326 329 329 327 326 324 324 322 320 319 316 314 310 314 325 327 329 329 328 329 329 329 329 328 327 327 327 327 327 328 328 327 328
323 319 320 322 324 324 325 323 325 326 328 331 327 332 325 324 326 324 324 322 318 316 315 314 310 314 324 326 329 328 328 328 329 329 328 328 328 328 327 327 326 328 328 328
321 323 321 323 322 324 326 324 326 326 329 327 327 329 325 324 325 323 323 322 320 317 317 315 313 312 315 322 325 328 328 328 328 328 328 328 328 328 328 327 327 327 328 329
316 317 320 322 321 321 323 324 325 326 328 330 327 328 326 326 322 321 321 321 321 320 319 318 317 315 311 316 324 326 327 327 327 328 328 327 328 327 327 327 326 326 327 327
319 318 319 319 321 322 324 326 327 327 326 328 321 326 324 323 315 315 317 315 314 313 311 311 311 308 309 313 320 324 326 326 326 327 327 327 327 327 326 326 326 325 325 325
321 321 320 320 321 322 324 324 327 328 326 325 318 328 324 319 319 320 317 316 315 308 307 309 310 310 311 311 317 322 324 325 326 326 327 327 327 327 327 326 326 326 326 326
321 321 318 319 319 321 325 327 321 322 311 318 318 313 314 312 313 311 311 310 313 312 308 306 306 308 309 311 315 320 323 325 325 326 326 326 327 327 327 327 327 327 327 326
320 324 319 319 317 319 323 320 324 320 326 322 319 316 320 315 315 314 315 311 308 307 308 307 304 303 308 309 313 318 322 324 325 325 326 326 327 327 327 326 326 326 326 326
317 319 319 319 321 322 321 323 322 322 321 321 320 318 309 314 314 313 309 307 307 306 305 305 306 304 304 306 310 316 320 323 325 326 326 326 326 326 326 326 327 327 327 326
318 315 320 320 315 318 320 321 322 324 320 315 313 319 311 307 307 306 305 303 302 301 302 301 301 300 301 303 306 312 318 321 323 325 326 326 326 326 326 326 327 327 327 327
318 314 319 319 316 315 321 321 321 320 316 319 320 320 312 307 305 303 302 302 302 300 300 299 299 298 300 302 303 307 314 318 321 323 324 325 326 327 327 327 327 327 328 327
316 315 318 318 317 318 321 321 321 322 324 322 320 319 316 314 310 311 306 302 300 300 300 299 300 299 300 302 303 304 307 316 319 321 323 324 325 325 326 326 327 327 327 326
316 316 317 316 312 313 315 320 320 322 322 324 322 320 317 316 314 315 308 303 301 301 300 300 299 300 300 302 303 304 305 306 312 318 320 321 322 323 323 323 323 324 324 325
311 314 311 314 315 315 316 313 318 320 321 322 321 321 318 316 315 315 311 304 302 301 300 300 299 299 300 302 304 305 306 306 306 306 309 310 310 310 309 308 307 308 310 314
311 311 313 314 312 313 316 315 314 316 318 320 323 320 318 317 317 315 315 312 304 302 301 300 299 299 300 303 304 305 306 307 307 307 307 307 307 308 308 309 310 311 312 312
308 308 312 312 309 316 310 309 313 313 314 317 318 318 317 317 315 313 306 306 305 302 301 300 299 299 302 303 304 305 306 307 307 308 308 309 309 308 309 310 312 313 314 315
307 308 308 303 307 305 310 308 312 312 314 312 317 317 317 315 312 314 311 305 307 305 303 300 301 302 302 302 302 304 305 306 307 308 308 308 308 308 307 308 309 310 311 312
305 307 304 302 309 301 305 306 306 308 314 311 311 313 313 311 315 315 314 312 307 303 301 300 301 301 301 301 301 301 303 304 304 305 306 306 307 308 307 307 307 307 306 307
303 307 309 308 308 301 302 306 307 310 309 305 310 310 310 312 313 313 311 309 307 307 300 300 299 299 298 298 299 300 300 300 300 301 302 303 304 306 307 305 304 304 304 304
299 300 299 305 303 301 302 304 310 305 300 300 299 302 304 307 309 310 310 307 302 299 295 297 295 293 293 295 296 297 296 295 296 297 299 301 302 303 303 303 305 304 303 303
303 302 301 302 301 300 302 303 295 294 296 296 296 297 297 298 301 302 302 301 298 295 292 292 290 287 289 292 294 294 292 293 294 295 295 296 297 299 300 301 302 301 301 301
303 302 303 308 306 301 296 293 289 289 290 292 291 292 293 295 295 296 295 294 292 290 288 287 287 286 285 286 288 289 289 290 291 292 293 294 295 296 297 298 299 299 299 299
299 300 300 302 301 298 294 287 286 287 288 288 288 289 291 291 293 292 291 289 287 286 285 286 285 284 283 285 287 289 291 291 292 292 293 293 294 295 294 295 296 296 295 297
294 299 302 302 288 291 291 288 285 285 286 286 287 287 287 288 289 288 286 285 284 283 283 282 282 282 281 284 285 288 290 291 292 292 292 293 293 292 291 290 289 291 292 293

GFSCGP_925_thetae_165.txt.gz
Theta_e
322 325 322 321 322 321 322 325 326 326 324 328 327 327 325 324 324 323 322 318 315 312 315 318 323 329 328 328 329 329 329 328 328 324 324 324 324 324 323 323 323 323 323 322
323 323 320 317 319 323 324 326 325 323 325 328 326 327 324 323 324 324 324 322 318 315 311 311 319 326 329 329 328 328 329 328 329 327 325 323 323 322 322 321 322 323 323 322
323 320 318 322 321 322 322 325 326 326 324 325 327 327 324 323 323 323 323 323 323 319 318 316 311 323 326 329 328 329 329 329 329 328 326 325 325 324 324 324 324 326 326 325
321 319 320 320 322 322 324 319 320 323 325 327 324 327 321 320 322 323 323 323 323 322 322 320 315 314 322 326 327 328 329 329 329 328 327 326 327 326 326 325 325 326 327 327
319 320 321 322 323 322 324 321 322 323 325 325 324 328 321 321 323 322 322 323 323 322 321 321 319 315 317 320 323 327 327 328 328 328 328 327 327 327 327 326 326 325 326 327
314 316 319 319 319 320 321 323 323 324 326 328 324 324 322 320 321 320 320 321 320 321 321 319 319 316 313 316 320 324 326 326 327 328 328 327 327 327 327 327 326 326 325 325
317 317 319 318 322 320 322 325 326 326 327 327 321 325 325 319 318 317 319 318 317 318 320 320 317 314 314 311 317 322 325 326 326 327 327 328 328 328 328 327 326 326 325 326
322 321 316 317 318 319 323 324 326 328 325 321 317 325 321 317 317 318 316 315 315 312 311 312 313 315 315 312 313 320 323 325 325 326 326 327 327 327 327 327 327 326 326 325
316 316 316 316 317 316 319 324 321 325 309 318 319 316 314 313 314 312 313 312 311 312 314 311 310 309 311 311 311 316 321 323 324 325 325 326 326 327 326 326 326 326 325 325
318 321 316 316 318 318 319 318 324 323 325 324 319 318 320 317 316 314 313 312 311 309 308 308 308 307 308 310 310 312 317 321 323 324 325 325 325 326 326 326 325 325 325 325
317 318 319 318 320 320 322 323 323 321 322 325 318 317 309 314 313 313 309 307 305 303 303 303 304 305 307 307 307 310 315 319 321 323 324 324 325 325 325 325 325 325 325 326
315 313 319 319 315 316 318 319 321 325 322 319 314 320 311 307 308 307 306 305 304 302 300 299 299 300 301 303 304 307 313 317 320 322 323 324 324 325 325 325 325 325 325 326
316 315 318 319 317 316 320 320 320 320 317 318 319 319 308 310 307 304 303 304 304 301 300 300 299 300 300 301 302 304 309 314 319 321 323 323 324 324 324 324 324 325 325 325
315 314 318 318 318 318 320 319 320 320 323 321 319 318 316 314 314 313 313 309 304 303 301 300 299 300 300 301 302 302 304 310 315 319 322 323 323 324 323 324 324 324 324 324
312 310 315 315 312 314 315 319 319 322 322 322 319 319 318 316 314 314 312 309 305 305 307 308 300 300 299 301 302 303 304 305 313 317 319 321 322 323 324 324 324 325 325 325
312 315 313 314 313 315 316 316 316 318 318 320 321 321 318 317 315 314 315 315 314 306 305 306 301 299 298 300 302 303 304 304 306 315 317 319 320 321 322 322 323 323 323 322
313 312 312 313 310 313 312 314 315 315 316 317 319 317 316 315 315 315 314 314 314 314 311 305 302 299 299 301 303 303 304 305 305 305 309 313 315 316 317 317 316 316 317 318
310 311 310 307 303 308 307 308 311 313 313 314 315 316 315 315 314 313 313 312 312 312 307 304 302 300 301 302 303 303 304 305 305 305 305 305 306 306 306 306 307 307 307 307
306 306 308 305 305 301 306 306 310 311 313 311 312 313 313 312 311 314 313 312 312 311 311 307 306 305 302 302 304 304 304 305 306 306 306 307 307 307 307 308 309 309 310 310
305 304 300 304 299 298 300 304 306 308 312 304 306 310 310 309 312 312 310 309 309 308 307 304 306 303 300 300 301 302 302 303 305 306 306 306 306 306 306 306 306 307 307 307
302 306 303 299 293 297 299 300 306 308 305 299 300 300 299 304 305 301 300 302 304 304 303 305 301 300 298 298 299 299 300 301 301 302 303 303 304 306 306 305 304 305 305 305
301 299 296 296 298 301 298 303 309 299 297 296 295 296 295 296 297 297 297 297 297 298 297 297 296 295 293 294 295 297 298 298 299 299 299 301 302 304 303 303 303 303 304 304
298 299 297 300 301 298 300 300 291 291 293 292 292 291 290 292 294 293 294 294 292 290 290 290 290 289 289 291 292 294 292 293 294 295 294 296 297 298 300 301 302 302 302 302
300 299 301 302 301 299 299 290 288 288 289 289 288 287 288 289 289 290 291 290 288 286 286 286 288 286 285 286 289 289 290 290 291 293 293 294 295 296 298 299 300 301 300 300
299 300 299 300 301 298 293 287 284 286 286 286 286 286 287 287 288 288 288 286 286 285 283 283 284 283 283 285 286 288 290 291 291 291 292 293 295 295 295 296 296 297 297 298
295 299 302 301 289 292 292 283 282 282 283 283 283 284 285 285 286 285 286 284 283 282 281 281 281 281 281 283 285 287 289 291 292 291 292 293 292 292 291 290 290 291 294 296

GFSCGP_925_thetae_168.txt.gz
Theta_e
322 324 325 325 323 323 322 325 324 323 323 325 326 327 327 327 326 326 326 325 325 326 325 319 320 324 327 330 330 330 329 329 329 328 327 327 326 326 327 326 327 327 326 325
324 325 321 320 322 324 325 325 325 323 322 324 325 326 325 324 325 325 325 324 323 324 324 324 320 322 327 327 329 330 329 329 329 329 328 327 326 325 325 324 325 326 326 326
322 320 320 321 321 322 322 323 324 323 322 324 325 327 324 323 324 324 323 323 323 323 323 323 321 319 325 327 328 330 329 329 329 328 328 328 327 325 325 324 324 325 325 325
322 320 321 321 322 322 323 320 321 322 322 325 322 328 322 320 319 320 322 323 324 325 324 324 323 322 320 326 328 328 329 329 329 329 328 328 327 326 325 325 324 324 324 324
319 320 322 322 321 321 322 320 323 322 323 323 324 327 322 320 320 320 321 321 322 324 324 324 324 323 321 321 327 328 328 330 330 329 329 328 328 327 327 326 326 325 325 324
317 317 319 318 320 320 320 323 323 323 324 326 325 326 327 323 322 321 320 320 321 322 323 323 323 323 322 320 323 327 328 329 330 329 329 329 328 328 328 328 328 327 327 325
315 316 318 319 320 320 321 324 326 328 327 328 322 327 326 322 321 321 322 322 321 320 321 321 322 322 321 320 319 323 328 328 329 329 328 328 328 328 329 329 329 328 328 327
318 319 316 318 320 321 322 322 324 326 326 323 321 327 324 320 320 321 321 320 319 318 318 318 318 319 320 318 316 318 322 327 327 329 328 328 329 329 329 329 329 329 329 328
318 317 316 315 317 318 322 324 321 324 318 324 323 322 321 319 320 320 319 318 317 314 313 311 311 315 315 317 317 315 319 323 326 327 328 328 328 329 329 329 329 329 329 328
316 318 318 316 317 317 318 319 323 324 327 324 319 321 321 320 319 319 317 314 312 311 309 308 307 307 309 310 312 314 315 320 323 325 327 327 328 328 329 329 329 329 328 328
315 316 319 318 320 320 319 319 319 319 321 321 320 318 317 318 319 318 317 312 311 309 309 307 307 304 304 304 307 309 310 315 319 323 325 326 327 327 328 328 328 328 328 327
315 317 318 317 317 317 318 320 320 322 321 323 322 323 313 315 316 314 314 310 308 310 310 309 308 304 305 303 303 305 308 312 316 319 322 325 326 326 327 327 327 327 326 327
315 316 317 320 316 315 320 319 319 319 319 323 325 321 315 314 315 314 315 315 313 313 311 312 315 307 305 304 303 304 304 309 314 318 321 323 324 325 326 326 326 326 325 326
313 314 315 319 319 319 321 320 320 320 323 323 323 321 319 317 317 317 317 317 316 314 311 311 314 314 307 304 303 303 303 304 310 316 320 322 323 324 324 324 324 324 324 324
314 317 314 315 316 317 319 319 321 322 321 322 321 320 319 318 317 318 318 318 317 316 315 314 314 314 313 304 303 303 303 303 305 312 317 321 322 323 323 323 323 323 323 322
313 315 315 314 315 316 317 316 319 320 319 320 321 321 318 318 318 318 316 316 317 317 316 315 315 313 311 304 302 302 303 303 303 307 313 317 320 321 321 321 320 321 322 322
315 312 314 315 312 313 317 315 315 316 317 319 321 319 317 317 316 316 316 316 316 316 315 315 314 313 311 307 303 303 304 304 304 304 310 313 316 318 318 320 320 320 321 322
312 313 314 315 312 316 313 310 313 315 315 315 316 316 316 316 315 315 314 314 314 313 312 313 314 313 310 306 302 303 304 304 305 304 304 308 313 315 317 317 318 318 318 318
311 312 313 315 313 309 308 306 310 314 315 313 314 314 313 312 311 313 305 303 303 303 304 306 308 310 308 305 302 303 303 304 305 305 304 304 304 305 306 306 307 306 306 306
307 307 311 308 311 310 306 306 306 311 313 304 305 305 304 308 311 311 304 301 300 299 298 299 300 301 301 300 299 301 302 304 304 305 306 306 305 304 304 304 304 304 306 307
310 309 311 308 308 308 304 304 304 315 308 302 302 302 302 305 305 302 299 298 297 296 295 294 294 295 293 294 295 297 298 300 301 302 302 304 305 306 305 304 304 305 305 305
307 308 308 306 308 307 302 304 309 304 300 299 297 298 296 296 297 297 296 296 295 294 292 290 291 291 289 290 292 295 296 295 296 296 298 300 302 305 304 303 302 302 303 304
305 304 306 307 307 301 301 301 295 295 297 295 294 292 291 293 293 293 293 293 292 289 288 288 288 289 288 286 287 291 289 291 293 295 294 295 297 299 300 301 301 302 303 303
301 299 304 303 303 301 301 292 291 290 290 289 288 288 289 290 289 289 289 289 288 287 286 285 286 286 286 285 285 286 288 290 291 292 294 294 296 298 299 300 302 303 302 301
303 302 303 304 303 300 293 289 287 287 286 286 285 285 286 287 288 287 286 286 286 285 284 283 283 284 284 283 285 286 287 289 290 291 292 293 295 296 295 296 298 300 301 301
300 303 305 305 298 299 294 285 283 285 284 284 283 284 283 285 285 284 285 284 284 283 282 281 281 281 281 282 284 285 287 288 290 290 290 292 292 292 292 292 292 293 296 297

GFSCGP_925_thetae_171.txt.gz
Theta_e
322 325 327 325 326 324 322 323 324 323 323 324 324 325 324 324 324 325 326 326 326 326 325 324 326 323 323 327 330 331 332 332 330 329 329 329 327 325 326 325 325 327 327 326
323 325 321 321 322 323 325 325 324 323 321 323 322 323 322 322 323 324 324 325 325 325 325 324 323 326 322 325 329 330 331 331 331 330 329 329 328 325 325 325 325 326 327 327
323 320 319 320 320 322 322 323 323 324 321 321 321 323 322 321 321 322 322 323 323 323 325 324 324 323 325 324 327 329 330 331 331 331 330 330 329 328 327 326 327 328 327 327
321 320 322 322 322 321 323 320 320 320 322 324 319 323 320 319 319 319 320 321 321 323 324 323 324 324 323 323 325 328 330 331 331 331 331 331 330 329 328 327 327 326 326 327
319 320 321 323 322 321 323 319 320 320 323 322 321 324 320 320 320 320 320 320 320 321 322 322 324 324 325 325 323 328 329 331 331 331 331 331 331 330 329 328 327 326 326 326
317 317 319 319 318 319 319 321 321 322 324 327 323 322 321 319 321 322 322 321 321 321 322 322 322 323 324 325 325 324 329 330 331 331 331 331 331 330 330 328 327 327 326 326
316 318 317 319 320 319 320 322 326 326 325 327 320 325 322 322 322 322 321 321 322 322 322 321 320 320 320 323 324 325 325 329 329 332 331 331 331 330 330 329 328 327 327 326
316 316 316 317 318 320 321 322 324 322 327 324 321 326 325 321 321 321 322 321 321 320 317 313 312 312 313 315 319 322 322 325 328 330 332 331 331 331 330 330 329 328 328 328
314 313 315 313 317 317 320 323 320 321 322 324 324 322 321 321 321 321 320 320 317 317 315 312 312 310 309 310 313 318 319 321 323 328 331 331 330 330 330 329 329 329 329 329
316 315 315 313 314 317 319 318 323 322 323 323 318 320 321 320 320 319 320 318 315 315 316 315 315 313 310 309 308 310 312 318 318 322 327 330 330 330 330 329 329 330 330 330
316 317 319 317 318 318 317 320 320 321 323 322 320 318 317 317 317 318 318 316 315 313 316 317 315 315 313 309 308 307 309 312 315 319 323 327 328 329 329 330 329 329 330 330
316 317 319 317 316 317 317 317 319 321 318 320 320 320 315 317 318 318 317 315 316 316 317 316 316 315 316 314 312 307 307 309 311 314 320 323 326 327 328 329 329 329 330 330
315 317 318 317 315 315 319 318 317 318 318 321 320 317 317 316 317 317 317 317 318 318 318 317 317 316 316 316 313 311 306 305 307 312 315 319 322 325 326 328 328 329 329 329
314 315 315 315 315 315 317 316 318 319 321 320 321 319 316 318 318 318 318 318 318 318 317 317 317 317 316 315 315 311 308 305 304 309 315 317 320 323 325 326 327 328 328 328
314 315 315 312 312 315 318 319 319 321 321 321 319 318 318 317 318 318 318 318 317 316 316 316 316 316 316 315 314 311 308 305 303 304 311 316 320 321 323 325 326 326 326 325
313 315 315 314 313 312 317 318 319 319 320 319 319 321 319 318 317 317 316 316 316 316 315 314 311 311 313 314 312 310 307 304 304 303 306 311 316 320 322 323 323 323 323 323
314 314 316 316 314 315 315 315 314 316 318 318 321 320 318 317 317 316 316 315 313 309 306 306 305 306 307 310 311 309 306 304 304 304 304 308 312 317 319 320 320 321 321 322
313 313 314 315 314 317 313 311 312 313 313 316 317 317 316 315 315 315 309 307 306 305 304 303 302 301 302 304 305 305 304 303 304 304 304 305 311 313 315 316 317 318 319 320
312 313 316 315 315 313 311 308 310 315 315 314 314 314 314 310 310 311 306 303 303 302 301 299 298 297 299 298 296 298 301 303 304 304 304 304 304 310 312 313 314 314 314 315
309 313 314 312 312 314 311 308 309 312 315 309 310 309 308 308 312 311 303 302 300 299 298 296 295 295 295 293 293 295 298 299 301 300 301 302 302 302 305 308 309 310 310 311
311 311 314 314 314 312 307 307 309 310 309 306 306 305 305 308 306 302 300 299 298 296 294 292 292 292 292 290 290 294 296 294 293 295 297 301 301 302 302 302 303 304 303 305
312 314 313 314 313 312 306 304 309 307 303 302 301 301 300 299 298 297 296 296 295 293 291 289 289 289 290 288 287 290 291 290 291 293 295 297 301 299 302 303 302 302 303 303
311 309 310 310 309 304 303 304 299 299 302 298 298 295 294 294 295 294 293 292 291 290 288 287 286 287 287 286 285 286 287 287 289 291 292 294 296 299 299 299 301 302 303 302
302 303 304 305 305 303 301 297 295 295 295 292 291 291 290 291 292 291 290 290 289 289 287 285 285 285 285 284 284 285 285 287 288 290 291 292 294 296 298 299 300 301 300 301
303 302 305 305 304 301 298 297 293 291 289 289 287 287 287 288 289 288 287 287 287 286 285 284 283 283 283 282 282 283 283 284 287 289 290 291 291 293 295 296 298 298 299 300
302 304 303 303 301 303 298 292 289 290 288 287 285 285 285 284 285 285 285 284 284 284 283 282 281 280 280 280 281 281 282 282 283 287 290 291 291 292 292 293 292 293 296 298

GFSCGP_925_thetae_174.txt.gz
Theta_e
323 326 326 325 324 324 323 323 323 322 321 324 324 323 322 320 320 321 320 321 322 322 323 325 325 325 324 324 327 331 332 331 329 329 328 327 328 327 327 326 325 327 326 324
323 325 321 322 323 324 325 324 323 321 321 322 320 320 319 319 319 319 320 320 320 320 320 322 324 324 325 323 324 329 332 332 331 329 328 328 327 327 327 327 325 326 327 326
321 319 320 320 322 324 324 324 324 322 319 320 319 320 318 318 318 318 319 319 319 320 320 320 321 323 323 325 322 326 329 332 332 330 329 329 328 328 326 325 324 323 326 327
320 318 319 319 320 320 323 318 319 321 322 321 318 320 318 317 316 316 316 315 316 317 319 319 319 321 322 323 324 324 328 330 331 331 330 329 329 328 327 325 324 324 323 327
320 319 321 321 320 319 320 319 320 321 320 319 319 321 317 316 316 316 316 315 315 315 315 317 317 321 323 324 323 324 325 329 330 331 331 330 329 329 328 327 326 325 325 325
318 317 318 320 318 319 319 321 320 321 322 324 320 319 317 315 316 320 318 317 319 319 318 319 320 320 320 321 323 325 324 327 330 331 331 331 330 330 329 328 327 327 326 327
316 317 317 318 319 320 321 321 319 323 322 321 317 319 317 317 318 318 318 318 318 318 318 316 310 310 311 312 315 322 325 325 328 331 331 331 331 331 330 329 328 327 327 326
317 316 317 317 319 320 320 320 320 321 323 320 316 322 320 319 318 319 320 319 318 313 309 308 309 310 310 310 310 314 319 324 325 329 331 331 331 331 331 330 329 328 327 326
314 315 312 315 316 316 319 321 317 321 316 322 322 321 319 318 319 318 318 318 315 314 312 312 312 311 311 311 310 309 311 319 322 324 328 330 331 331 330 330 330 329 328 327
313 313 312 312 314 315 316 317 321 320 321 317 314 313 315 318 319 318 317 316 312 311 313 313 312 313 314 313 312 311 310 309 315 319 322 325 330 331 331 330 330 329 329 328
314 317 314 312 315 317 317 320 319 318 317 319 318 315 314 313 316 315 314 313 311 313 312 313 312 314 314 315 314 313 311 309 308 312 317 319 324 330 331 330 330 329 329 329
314 316 320 316 315 313 315 316 319 318 319 317 318 319 313 312 315 314 313 314 314 315 313 312 312 314 315 315 315 315 314 310 307 306 310 314 319 324 329 330 329 329 329 329
314 316 312 316 317 316 318 317 315 315 317 316 316 316 312 313 310 313 314 316 314 315 313 312 311 311 313 314 314 314 314 312 308 307 306 309 314 322 324 327 328 329 329 329
314 314 312 312 314 315 317 317 317 317 318 317 317 316 314 312 313 313 313 314 315 314 312 311 310 309 309 308 311 313 312 311 308 306 304 307 312 315 319 323 326 327 328 328
314 312 313 313 311 315 315 315 315 316 317 318 316 315 314 313 312 313 313 314 313 312 309 305 304 303 304 304 305 308 309 309 306 304 303 304 305 314 318 321 324 325 326 327
313 313 310 308 313 312 312 314 315 317 317 315 316 316 314 314 313 315 314 312 311 307 305 303 303 302 301 301 301 302 302 304 304 304 304 304 306 308 313 320 322 324 325 326
313 311 312 308 311 309 310 311 311 314 316 316 317 316 315 315 315 315 312 307 306 304 303 302 301 299 298 298 299 296 296 299 303 304 304 304 304 307 310 317 321 323 323 323
312 309 312 303 308 314 308 309 309 310 312 313 314 314 315 315 313 306 303 303 303 301 300 299 297 296 295 296 294 293 295 298 300 301 301 302 303 303 306 310 314 319 320 320
311 311 313 311 306 306 308 308 309 311 311 311 312 314 314 308 307 304 302 301 300 299 298 296 294 293 294 293 290 291 294 295 294 293 294 297 300 301 302 305 310 309 314 316
308 310 311 312 309 306 308 307 306 310 312 309 311 310 308 307 310 306 300 298 297 296 295 293 291 290 290 290 288 289 292 291 290 290 291 294 296 299 301 301 303 309 308 310
312 312 313 312 304 305 306 307 308 308 308 306 305 305 305 306 302 299 297 295 295 293 292 290 288 288 288 288 286 287 287 287 287 288 290 293 294 296 297 300 301 302 304 304
311 312 312 312 312 310 304 306 308 305 303 302 302 300 299 297 296 296 294 293 292 290 290 288 286 286 286 286 284 285 286 285 286 287 289 290 292 294 296 297 298 299 301 303
308 308 308 308 307 302 301 302 299 300 299 299 298 294 293 294 294 293 291 290 289 289 288 286 285 284 284 284 284 284 284 284 285 287 288 290 290 292 295 296 296 298 298 300
303 302 303 304 303 301 299 296 295 295 294 292 291 291 290 291 290 289 289 288 286 286 286 284 283 283 283 282 282 282 283 283 285 285 287 289 290 291 292 295 296 297 298 298
300 301 300 301 302 299 297 295 291 290 289 288 287 287 287 287 287 287 286 285 284 284 283 282 282 281 280 279 279 280 280 281 280 283 287 289 291 291 291 292 293 296 297 297
299 300 301 301 299 299 296 291 290 289 288 286 286 285 284 284 284 283 282 282 282 281 280 280 278 277 277 277 277 278 278 278 278 280 284 287 289 290 291 292 292 292 293 296